FW0960 Weather Reports


time (UTC)temp
C
wind
direction
speed
KPH
gust
KPH
rain 1hr
cm
rain 24hr
cm
rain mn
cm
humidity
%
barometer
mb
20260831115509 23 175 0.0 0.0 0.00 0.00 0.00 100 1019.8
20260831115003 23 175 0.0 0.0 0.00 0.00 0.00 100 1019.9
20260831114456 23 175 0.0 0.0 0.00 0.00 0.00 100 1019.8
20260831111930 23 175 0.0 0.0 0.00 0.00 0.00 100 1019.7
20260831110925 23 175 0.0 0.0 0.00 0.00 0.00 100 1019.5
20260831110432 23 175 0.0 0.0 0.00 0.00 0.00 100 1019.5
20260831105926 23 175 0.0 0.0 0.00 0.00 0.00 100 1019.5
20260831105426 22 175 0.0 0.0 0.00 0.00 0.00 100 1019.5
20260831104927 22 175 0.0 0.0 0.00 0.00 0.00 100 1019.4
20260831104426 22 175 0.0 0.0 0.00 0.00 0.00 100 1019.2
20260831103922 22 175 0.0 0.0 0.00 0.00 0.00 100 1019.1
20260831103419 22 175 0.0 0.0 0.00 0.00 0.00 100 1019.2
20260831102919 22 175 0.0 0.0 0.00 0.00 0.00 100 1019.0
20260831101919 22 175 0.0 0.0 0.00 0.00 0.00 100 1018.8
20260831101416 22 175 0.0 0.0 0.00 0.00 0.00 100 1018.8
20260831100916 23 175 0.0 0.0 0.00 0.00 0.00 100 1018.8
20260831100412 23 175 0.0 0.0 0.00 0.00 0.00 100 1018.7
20260831095910 23 175 0.0 0.0 0.00 0.00 0.00 100 1018.7
20260831095409 23 175 0.0 0.0 0.00 0.00 0.00 100 1018.7
20260831094908 23 175 0.0 0.0 0.00 0.00 0.00 100 1018.7
20260831094408 23 175 0.0 0.0 0.00 0.00 0.00 100 1018.7
20260831093904 23 175 0.0 0.0 0.00 0.00 0.00 100 1018.7
20260831093356 23 175 0.0 0.0 0.00 0.00 0.00 100 1018.7
20260831092854 23 175 0.0 0.0 0.00 0.00 0.00 100 1018.8
20260831091843 23 175 0.0 1.6 0.00 0.00 0.00 100 1018.7
20260831091335 23 175 0.0 1.6 0.00 0.00 0.00 100 1018.7
20260831090828 23 175 0.0 0.0 0.00 0.00 0.00 100 1018.7
20260831090331 23 175 0.0 0.0 0.00 0.00 0.00 100 1018.6
20260831085828 23 175 0.0 0.0 0.00 0.00 0.00 100 1018.6
20260831085332 23 175 0.0 0.0 0.00 0.00 0.00 100 1018.6
20260831084829 23 175 0.0 0.0 0.00 0.00 0.00 100 1018.5
20260831084332 23 175 0.0 0.0 0.00 0.00 0.00 100 1018.5
20260831083830 23 175 0.0 0.0 0.00 0.00 0.00 100 1018.5
20260831083334 23 175 0.0 1.6 0.00 0.00 0.00 100 1018.5
20260831082832 23 175 0.0 1.6 0.00 0.00 0.00 100 1018.6
20260831082329 23 175 0.0 1.6 0.00 0.00 0.00 100 1018.7
20260831080834 23 175 0.0 1.6 0.00 0.00 0.00 100 1018.7
20260831080332 22 175 0.0 1.6 0.00 0.00 0.00 100 1018.6
20260831075335 23 175 0.0 3.2 0.00 0.00 0.00 98 1018.6
20260831074333 23 250 0.0 1.6 0.00 0.00 0.00 98 1018.6
20260831073331 23 250 0.0 1.6 0.00 0.00 0.00 98 1018.7
20260831072834 23 250 0.0 1.6 0.00 0.00 0.00 98 1018.8
20260831071831 23 250 0.0 0.0 0.00 0.00 0.00 97 1018.9
20260831071329 23 250 0.0 0.0 0.00 0.00 0.00 97 1018.8
20260831070834 23 250 0.0 1.6 0.00 0.00 0.00 97 1018.9
20260831065831 23 250 0.0 0.0 0.00 0.00 0.00 97 1018.9
20260831064829 23 250 0.0 0.0 0.00 0.00 0.00 97 1019.0
20260831064332 23 250 0.0 0.0 0.00 0.00 0.00 97 1019.1
20260831063836 23 250 0.0 0.0 0.00 0.00 0.00 97 1019.0
20260831063334 23 250 0.0 1.6 0.00 0.00 0.00 97 1019.1
20260831062333 23 250 0.0 0.0 0.00 0.00 0.00 97 1019.0
20260831061329 23 250 0.0 1.6 0.00 0.00 0.00 97 1019.1
20260831060828 23 250 0.0 1.6 0.00 0.00 0.00 97 1019.1
20260831060331 23 250 0.0 1.6 0.00 0.00 0.00 97 1019.1
20260831055832 23 250 0.0 1.6 0.00 0.00 0.00 97 1019.1
20260831055333 23 250 0.0 0.0 0.00 0.00 0.00 96 1019.0
20260831054835 23 250 0.0 1.6 0.00 0.00 0.00 96 1019.1
20260831054332 23 250 0.0 3.2 0.00 0.00 0.00 96 1019.0
20260831053829 23 250 0.0 3.2 0.00 0.00 0.00 96 1019.0
20260831053330 23 250 0.0 0.0 0.00 0.00 0.00 96 1019.0
20260831052830 23 250 0.0 0.0 0.00 0.00 0.00 96 1019.1
20260831051835 23 250 0.0 1.6 0.00 0.00 0.00 96 1019.2
20260831051332 23 250 0.0 1.6 0.00 0.00 0.00 96 1019.0
20260831050830 23 250 0.0 4.8 0.00 0.00 0.00 96 1019.0
20260831050333 23 250 0.0 4.8 0.00 0.00 0.00 96 1019.1
20260831045330 23 250 0.0 4.8 0.00 0.00 0.00 96 1019.1
20260831044829 23 250 0.0 4.8 0.00 0.00 0.00 96 1019.2
20260831044332 23 250 0.0 0.0 0.00 0.00 0.00 96 1019.2
20260831043831 23 250 0.0 1.6 0.00 0.00 0.00 96 1019.3
20260831043329 23 250 0.0 1.6 0.00 0.00 0.00 96 1019.4
20260831042833 23 250 0.0 1.6 0.00 0.00 0.00 96 1019.2
20260831042331 23 250 0.0 1.6 0.00 0.00 0.00 96 1019.3
20260831041829 23 250 0.0 1.6 0.00 0.00 0.00 96 1019.3
20260831041330 23 250 0.0 0.0 0.00 0.00 0.00 95 1019.4
20260831040834 23 250 0.0 0.0 0.00 0.00 0.00 95 1019.3
20260831040331 23 250 0.0 4.8 0.00 0.00 0.00 95 1019.4
20260831035833 23 250 0.0 4.8 0.00 0.00 0.00 95 1019.3
20260831035334 23 250 0.0 3.2 0.00 0.00 0.00 95 1019.4
20260831034837 23 250 0.0 3.2 0.00 0.00 0.00 95 1019.4
20260831034339 23 250 0.0 3.2 0.00 0.00 0.00 95 1019.3
20260831033832 23 250 0.0 1.6 0.00 0.00 0.00 95 1019.5
20260831032838 23 250 0.0 1.6 0.00 0.00 0.00 95 1019.5
20260831032331 23 250 0.0 1.6 0.00 0.00 0.00 95 1019.5
20260831031332 23 250 0.0 1.6 0.00 0.00 0.00 94 1019.5
20260831030332 24 250 0.0 1.6 0.00 0.00 0.00 94 1019.7
20260831025331 24 250 0.0 0.0 0.00 0.00 0.00 94 1019.9
20260831024832 24 250 0.0 1.6 0.00 0.00 0.00 94 1020.0
20260831024332 24 250 0.0 1.6 0.00 0.00 0.00 94 1020.0
20260831023330 24 250 0.0 1.6 0.00 0.00 0.00 94 1019.9
20260831022839 24 250 0.0 1.6 0.00 0.00 0.00 94 1020.0
20260831022334 24 250 0.0 0.0 0.00 0.00 0.00 94 1020.0
20260831021332 24 250 0.0 1.6 0.00 0.00 0.00 93 1019.9
20260831020839 24 250 0.0 1.6 0.00 0.00 0.00 93 1019.9
20260831015833 24 250 0.0 0.0 0.00 0.00 0.00 93 1020.0
20260831014833 24 250 0.0 0.0 0.00 0.00 0.00 93 1020.1
20260831014334 24 250 0.0 0.0 0.00 0.00 0.00 92 1020.2
20260831013833 24 250 0.0 1.6 0.00 0.00 0.00 92 1020.2
20260831013334 25 250 0.0 1.6 0.00 0.00 0.00 92 1020.2
20260831012833 25 250 0.0 0.0 0.00 0.00 0.00 92 1020.3
20260831010830 25 250 0.0 3.2 0.00 0.00 0.00 91 1020.3
20260831005333 25 250 0.0 0.0 0.00 0.00 0.00 91 1020.1
20260831004832 25 250 0.0 3.2 0.00 0.00 0.00 91 1020.1
20260831004332 25 250 0.0 3.2 0.00 0.00 0.00 90 1019.9
20260831003830 25 250 0.0 1.6 0.00 0.00 0.00 90 1019.9
20260831002835 25 250 0.0 1.6 0.00 0.00 0.00 90 1019.9
20260831001837 25 250 0.0 1.6 0.00 0.00 0.00 89 1019.9
20260831001334 25 250 0.0 1.6 0.00 0.00 0.00 89 1019.9
20260831000330 25 250 0.0 1.6 0.00 0.00 0.00 89 1019.8
20260830235833 25 250 0.0 1.6 0.00 0.00 0.00 88 1019.9
20260830235331 25 250 0.0 3.2 0.00 0.00 0.00 88 1019.9
20260830234332 26 250 0.0 1.6 0.00 0.00 0.00 88 1019.7
20260830233838 26 250 0.0 3.2 0.00 0.00 0.00 88 1019.7
20260830233330 26 250 0.0 3.2 0.00 0.00 0.00 88 1019.8
20260830232831 26 250 0.0 1.6 0.00 0.00 0.00 88 1019.8
20260830232331 26 250 0.0 3.2 0.00 0.00 0.00 87 1019.8
20260830231831 26 250 0.0 3.2 0.00 0.00 0.00 87 1019.8
20260830231335 26 250 0.0 1.6 0.00 0.00 0.00 88 1019.8
20260830230832 26 250 0.0 1.6 0.00 0.00 0.00 88 1019.8
20260830230334 26 250 0.0 1.6 0.00 0.00 0.00 88 1019.8
20260830225835 26 250 0.0 1.6 0.00 0.00 0.00 88 1019.7
20260830224823 26 250 0.0 3.2 0.00 0.00 0.00 87 1019.5
20260830224316 27 250 0.0 3.2 0.00 0.00 0.00 87 1019.5
20260830223812 27 250 0.0 3.2 0.00 0.00 0.00 87 1019.8
20260830223316 27 250 0.0 1.6 0.00 0.00 0.00 87 1019.8
20260830222813 27 250 0.0 1.6 0.00 0.00 0.00 87 1019.8
20260830222312 27 250 0.0 1.6 0.00 0.00 0.00 87 1019.7
20260830221807 27 250 0.0 1.6 0.00 0.00 0.00 87 1019.6
20260830220805 27 250 0.0 1.6 0.00 0.00 0.00 86 1019.4
20260830215813 27 250 0.0 1.6 0.00 0.00 0.00 85 1019.4
20260830215306 27 250 0.0 3.2 0.00 0.00 0.00 86 1019.3
20260830214801 27 250 0.0 3.2 0.00 0.00 0.00 86 1019.4
20260830213800 27 250 0.0 3.2 0.00 0.00 0.00 86 1019.5
20260830212759 27 249 0.0 3.2 0.00 0.00 0.00 86 1019.5
20260830212258 27 249 0.0 3.2 0.00 0.00 0.00 86 1019.5
20260830211806 28 249 0.0 3.2 0.00 0.00 0.00 85 1019.4
20260830211301 28 249 0.0 3.2 0.00 0.00 0.00 85 1019.4
20260830210801 28 249 0.0 1.6 0.00 0.00 0.00 85 1019.5
20260830205801 28 249 0.0 3.2 0.00 0.00 0.00 84 1019.5
20260830205255 28 249 0.0 3.2 0.00 0.00 0.00 85 1019.3
20260830204259 28 249 0.0 1.6 0.00 0.00 0.00 84 1019.4
20260830203754 28 249 0.0 3.2 0.00 0.00 0.00 85 1019.3
20260830202755 28 249 0.0 1.6 0.00 0.00 0.00 84 1019.3
20260830202257 28 249 0.0 3.2 0.00 0.00 0.00 84 1019.4
20260830201758 28 249 0.0 3.2 0.00 0.00 0.00 84 1019.5
20260830201259 28 249 0.0 1.6 0.00 0.00 0.00 84 1019.5
20260830200759 28 249 0.0 1.6 0.00 0.00 0.00 85 1019.6
20260830200255 28 248 0.0 3.2 0.00 0.00 0.00 84 1019.7
20260830195255 28 248 0.0 3.2 0.00 0.00 0.00 84 1019.7
20260830194253 28 248 0.0 1.6 0.00 0.00 0.00 86 1019.7
20260830193749 28 248 0.0 1.6 0.00 0.00 0.00 86 1019.8
20260830192315 28 250 1.6 3.2 0.00 0.00 0.00 85 1020.1
20260830191749 28 250 0.0 3.2 0.00 0.00 0.00 87 1020.2
20260830191247 28 250 0.0 3.2 0.00 0.00 0.00 84 1020.3
20260830190746 28 250 0.0 3.2 0.00 0.00 0.00 83 1020.4
20260830190250 28 250 0.0 3.2 0.00 0.00 0.00 83 1020.6
20260830185236 28 246 0.0 3.2 0.00 0.00 0.00 85 1020.6
20260830184735 28 246 0.0 3.2 0.00 0.00 0.00 85 1020.8
20260830184237 28 246 0.0 3.2 0.00 0.00 0.00 83 1021.0
20260830183735 28 246 0.0 3.2 0.00 0.00 0.00 85 1020.9
20260830183233 28 250 0.0 3.2 0.00 0.00 0.00 83 1021.0
20260830182730 28 249 0.0 3.2 0.00 0.00 0.00 83 1021.0
20260830182234 28 249 0.0 3.2 0.00 0.00 0.00 84 1021.0
20260830181733 28 248 0.0 3.2 0.00 0.00 0.00 84 1021.2
20260830181238 28 248 0.0 3.2 0.00 0.03 0.00 83 1021.2
20260830180731 28 248 0.0 3.2 0.00 0.03 0.00 83 1021.1
20260830175234 28 246 0.0 3.2 0.00 0.03 0.00 84 1021.5
20260830174729 28 246 0.0 3.2 0.00 0.03 0.00 84 1021.5
20260830174232 28 246 0.0 3.2 0.00 0.03 0.00 83 1021.6
20260830173733 27 225 0.0 3.2 0.00 0.03 0.00 83 1021.6
20260830172730 27 225 0.0 3.2 0.00 0.03 0.00 83 1021.7
20260830171731 27 225 1.6 3.2 0.00 0.03 0.00 82 1021.8
20260830171232 27 212 0.0 4.8 0.00 0.03 0.00 83 1021.7
20260830170735 27 212 0.0 4.8 0.00 0.03 0.00 83 1021.8
20260830170235 27 211 1.6 3.2 0.00 0.03 0.00 83 1021.9
20260830165733 27 210 0.0 3.2 0.00 0.03 0.00 83 1021.9
20260830165229 27 210 0.0 3.2 0.00 0.03 0.00 84 1022.0
20260830164730 27 210 0.0 3.2 0.00 0.03 0.00 83 1022.1
20260830164232 27 210 0.0 3.2 0.00 0.03 0.00 84 1022.0
20260830163728 27 210 1.6 3.2 0.00 0.03 0.00 83 1022.1
20260830163232 27 210 1.6 3.2 0.00 0.03 0.00 84 1022.2
20260830162736 27 209 0.0 3.2 0.00 0.03 0.00 85 1022.1
20260830162232 27 202 0.0 3.2 0.00 0.03 0.00 85 1022.1
20260830161729 27 200 0.0 1.6 0.00 0.03 0.00 84 1022.3
20260830160732 26 200 0.0 3.2 0.00 0.03 0.00 83 1022.5
20260830160233 26 200 0.0 3.2 0.00 0.03 0.00 84 1022.5
20260830155729 26 200 0.0 3.2 0.00 0.03 0.00 83 1022.5
20260830155235 26 200 0.0 3.2 0.00 0.03 0.00 85 1022.5
20260830154730 26 200 0.0 3.2 0.00 0.03 0.00 84 1022.5
20260830153732 26 198 0.0 3.2 0.00 0.03 0.00 85 1022.6
20260830153235 26 198 0.0 3.2 0.00 0.03 0.00 85 1022.6
20260830152729 26 198 0.0 3.2 0.00 0.03 0.00 84 1022.7
20260830152232 26 198 0.0 1.6 0.00 0.03 0.00 85 1022.7
20260830151731 26 197 0.0 3.2 0.00 0.03 0.00 86 1022.7
20260830151229 26 197 0.0 3.2 0.00 0.03 0.00 85 1022.7
20260830150728 25 190 0.0 3.2 0.00 0.03 0.00 85 1022.7
20260830150233 25 190 0.0 3.2 0.00 0.03 0.00 87 1022.7
20260830145737 25 190 0.0 3.2 0.00 0.03 0.00 86 1022.7
20260830145234 25 190 0.0 3.2 0.00 0.03 0.00 86 1022.8
20260830144731 25 190 0.0 3.2 0.00 0.03 0.00 86 1022.9
20260830144229 25 190 0.0 3.2 0.00 0.03 0.00 86 1022.7
20260830143729 25 190 0.0 3.2 0.00 0.03 0.00 88 1022.8
20260830142233 24 190 0.0 3.2 0.00 0.03 0.00 88 1023.0
20260830141731 24 190 0.0 1.6 0.00 0.03 0.00 88 1023.0
20260830141231 24 190 0.0 3.2 0.00 0.03 0.00 88 1023.0
20260830140747 24 190 0.0 3.2 0.00 0.03 0.00 89 1023.0
20260830135732 24 190 0.0 3.2 0.00 0.03 0.00 89 1023.0
20260830135231 23 190 0.0 1.6 0.00 0.03 0.00 89 1023.1
20260830134229 23 190 0.0 1.6 0.00 0.03 0.00 91 1023.2
20260830133234 23 190 0.0 0.0 0.00 0.03 0.00 92 1023.4
20260830132728 23 190 0.0 1.6 0.00 0.03 0.00 93 1023.4
20260830132232 23 190 0.0 1.6 0.00 0.03 0.00 94 1023.5
20260830131232 22 190 0.0 0.0 0.00 0.03 0.00 96 1023.6
20260830130723 22 190 0.0 0.0 0.00 0.03 0.00 98 1023.6
20260830130219 22 190 0.0 1.6 0.00 0.03 0.00 99 1023.6
20260830125716 21 190 0.0 4.8 0.00 0.03 0.00 100 1023.6
20260830125209 21 190 0.0 4.8 0.00 0.03 0.00 100 1023.6
20260830123652 21 190 0.0 0.0 0.00 0.03 0.00 100 1023.7
20260830123143 21 190 0.0 0.0 0.00 0.03 0.00 100 1023.7
20260830122643 21 190 0.0 0.0 0.00 0.03 0.00 100 1023.7
20260830122133 20 190 0.0 0.0 0.00 0.03 0.00 100 1023.6
20260830121635 20 190 0.0 0.0 0.00 0.03 0.00 100 1023.6
20260830121133 20 190 0.0 0.0 0.00 0.03 0.00 100 1023.6